Fort Knox, KY

7:00 AM EDT on August 28, 2016 (GMT -0400)
Godman Army Air Field

Weather History for KFTK - December, 2012

Change the Weather History Date:

Thursday, December 20, 2012

  Actual Average Record
Temperature  
Mean Temperature 44 °F -  
Max Temperature 55 °F 39 °F 62 °F (2013)
Min Temperature 31 °F 24 °F 6 °F (1996)
Degree Days  
Heating Degree Days 22    
Moisture  
Dew Point 39 °F    
Average Humidity 77    
Maximum Humidity 94    
Minimum Humidity 61    
Precipitation  
Precipitation 0.67 in - - ()
Sea Level Pressure  
Sea Level Pressure 29.55 in    
Wind  
Wind Speed 20 mph (SSW)    
Max Wind Speed 30 mph    
Max Gust Speed 43 mph    
Visibility 8 miles    
Events Rain , Snow , Thunderstorm    
Averages and records for this station are not official NWS values.
T = Trace of Precipitation, MM = Missing Value Source: NWS Daily Summary

Daily Weather History Graph

Daily Weather History Graph

Search for Another Location

Airport or City:

Trip Planner

Search our weather history database for the weather conditions in past years. The results will help you decide how hot, cold, wet, or windy it might be!

Date:

Astronomy

Dec. 20, 2012 Rise Set
Actual Time 7:55 AM EST 5:27 PM EST
Civil Twilight 7:26 AM EST 5:57 PM EST
Nautical Twilight 6:53 AM EST 6:30 PM EST
Astronomical Twilight 6:21 AM EST 7:02 PM EST
Moon 12:40 PM EST (12/20) 12:47 AM EST (12/20)
Length of Visible Light 10h 31m
Length of Day
9h 32m
First Quarter, 55% of the Moon is Illuminated
Dec 20
First Quarter
Dec 28
Full
Jan 4
Last Quarter
Jan 11
New
Jan 18
First Quarter

Hourly Weather History & Observations

Time (EST) Temp. Windchill Dew Point Humidity Pressure Visibility Wind Dir Wind Speed Gust Speed Precip Events Conditions
12:55 AM 52.5 °F - 43.5 °F 71% 29.84 in 10.0 mi SSE 13.8 mph 20.7 mph N/A   Partly Cloudy
1:55 AM 54.7 °F - 43.7 °F 66% 29.79 in 10.0 mi SSE 17.3 mph 24.2 mph N/A   Clear
2:55 AM 55.2 °F - 44.1 °F 66% 29.72 in 10.0 mi SE 23.0 mph 28.8 mph N/A   Clear
3:55 AM 55.8 °F - 43.5 °F 63% 29.70 in 10.0 mi SSE 17.3 mph 29.9 mph N/A   Scattered Clouds
4:55 AM 55.8 °F - 43.2 °F 63% 29.62 in 10.0 mi SE 20.7 mph 25.3 mph N/A   Mostly Cloudy
5:47 AM 55.4 °F - 42.8 °F 63% 29.58 in 10.0 mi South 20.7 mph 25.3 mph N/A Rain , Thunderstorm Light Thunderstorms and Rain
5:55 AM 54.1 °F - 45.3 °F 72% 29.60 in 7.0 mi South 12.7 mph 21.9 mph 0.05 in Rain , Thunderstorm Light Thunderstorms and Rain
6:55 AM 50.4 °F - 46.4 °F 86% 29.56 in 7.0 mi SSE 24.2 mph 33.4 mph 0.13 in Rain Light Rain
7:55 AM 49.5 °F - 46.6 °F 90% 29.55 in 7.0 mi SSE 23.0 mph 33.4 mph 0.13 in Rain Light Rain
8:29 AM 50.0 °F - 46.4 °F 87% 29.52 in 7.0 mi SSE 20.7 mph 29.9 mph N/A Rain Light Rain
8:55 AM 50.0 °F - 47.5 °F 91% 29.51 in 7.0 mi SSE 21.9 mph 31.1 mph 0.00 in Rain Light Rain
9:18 AM 50.0 °F - 48.2 °F 94% 29.51 in 1.5 mi SSE 17.3 mph 27.6 mph N/A Rain Heavy Rain
9:29 AM 50.0 °F - 48.2 °F 94% 29.50 in 2.0 mi SSE 19.6 mph 29.9 mph N/A Rain Rain
9:50 AM 50.0 °F - 48.2 °F 94% 29.50 in 7.0 mi SSE 18.4 mph 27.6 mph N/A Rain Light Rain
9:55 AM 50.9 °F - 48.9 °F 93% 29.51 in 7.0 mi SSE 20.7 mph 25.3 mph 0.14 in Rain Light Rain
10:55 AM 51.1 °F - 49.1 °F 93% 29.47 in 7.0 mi SSE 20.7 mph 25.3 mph 0.14 in Rain Light Rain
11:46 AM 51.8 °F - 50.0 °F 94% 29.42 in 10.0 mi South 20.7 mph 33.4 mph N/A Rain Light Rain
11:55 AM 52.0 °F - 49.5 °F 91% 29.45 in 10.0 mi South 19.6 mph 27.6 mph 0.07 in   Overcast
12:35 PM 53.6 °F - 48.2 °F 82% 29.39 in 10.0 mi South 17.3 mph 26.5 mph N/A   Mostly Cloudy
12:55 PM 53.1 °F - 48.7 °F 85% 29.39 in 10.0 mi South 17.3 mph 24.2 mph 0.00 in   Overcast
1:55 PM 52.9 °F - 46.6 °F 79% 29.37 in 10.0 mi SSW 18.4 mph 26.5 mph N/A   Overcast
2:35 PM 50.0 °F - 37.4 °F 62% 29.38 in 10.0 mi SSW 28.8 mph 42.6 mph N/A   Overcast
2:51 PM 48.2 °F - 37.4 °F 66% 29.39 in 10.0 mi WSW 26.5 mph 38.0 mph N/A Rain Light Rain Showers
2:55 PM 47.5 °F - 37.2 °F 68% 29.41 in 10.0 mi SW 28.8 mph 39.1 mph 0.01 in Rain Light Rain
3:55 PM 42.6 °F 32.8 °F 30.2 °F 61% 29.47 in 10.0 mi WSW 25.3 mph 41.4 mph 0.00 in   Overcast
4:40 PM 41.0 °F 30.7 °F 32.0 °F 70% 29.48 in 10.0 mi SW 25.3 mph 31.1 mph N/A   Light Ice Pellets
4:55 PM 39.4 °F 29.2 °F 31.3 °F 73% 29.52 in 10.0 mi WSW 21.9 mph 36.8 mph 0.00 in   Light Ice Pellets
5:14 PM 37.4 °F 25.0 °F 32.0 °F 81% 29.52 in 10.0 mi SW 29.9 mph 42.6 mph N/A   Overcast
5:55 PM 37.6 °F 25.2 °F 29.5 °F 73% 29.55 in 10.0 mi SW 29.9 mph 39.1 mph 0.00 in   Overcast
6:24 PM 37.4 °F 26.4 °F 28.4 °F 70% 29.56 in 10.0 mi WSW 23.0 mph 33.4 mph N/A   Light Ice Pellets
6:55 PM 36.9 °F 25.6 °F 26.6 °F 66% 29.61 in 10.0 mi WSW 23.0 mph 38.0 mph 0.00 in   Light Ice Pellets
7:50 PM 35.6 °F 24.2 °F 26.6 °F 70% 29.62 in 5.0 mi WSW 21.9 mph 35.7 mph N/A Snow Light Snow
7:55 PM 35.4 °F 23.2 °F 26.4 °F 70% 29.64 in 5.0 mi WSW 25.3 mph 35.7 mph 0.00 in Snow Light Snow
8:55 PM 34.5 °F 22.8 °F 24.4 °F 67% 29.67 in 10.0 mi WSW 21.9 mph 42.6 mph 0.00 in Snow Light Snow
9:55 PM 32.7 °F 21.1 °F 25.3 °F 74% 29.70 in 6.0 mi West 19.6 mph 32.2 mph 0.00 in Snow Light Snow
10:59 PM 32.7 °F 21.1 °F 25.3 °F 74% 29.76 in 6.0 mi West 19.6 mph 32.2 mph 0.00 in Snow Light Snow
11:55 PM 31.5 °F 20.1 °F 25.9 °F 80% 29.74 in 10.0 mi West 17.3 mph 27.6 mph 0.00 in Snow Light Snow